7 * 24
多渠道服务支持
STARLINK-37660(NORAD编号69132)是SpaceX星链(Starlink)星座中的一颗低轨互联网通信卫星。作为星链项目的组成部分,它旨在为全球提供高速、低延迟的太空互联网覆盖服务,尤其服务于偏远地区和网络基础设施薄弱区域。作为低地球轨道卫星,运行在约550公里高度,采用SpaceX设计的卫星平台,配备相控阵天线和激光星间链路技术,保障全球网络无缝连接。目前仍在轨正常运行,参与星链星座扩容,推动全球互联网普及计划,持续为用户提供稳定的宽带服务。
美国
(US)
| 数据来源 | 国际轨道数据 |
| 星历时间: | 2026-07-27T19:34:33+0800 12小时前 查看轨道信息 |
| 半长轴: | 6843.873km |
| 偏心率: | 0.0000099 |
| 轨道倾角: | 97.285° |
| 近地点辐角 | 220.161° |
| 升交点赤经 | 44.304° |
| 平近点角 | 139.963° |
| 近地点: | 465.668km |
| 远地点: | 465.804km |
| 周期: | 93.910分钟 |
| 每日圈数: | 15.333803 |